User: anonymous   Login
Location: Unspecified
(0.0000°N, 0.0000°E)
Time: 21:56:51
(UTC+02:00)
Language:

Resurs 1-3 - Orbit

View from above orbital plane
View from above orbital plane
View from above satellite
View from above satellite

Ground track
Ground track

The orbit data is extracted from the following two-line orbital elements,

1 23342U 94074A   15215.66570818  .00000237  00000-0  39358-4 0  9997
2 23342 098.1495 236.5430 0001852 107.3560 004.2389 14.78985846116748
Epoch (UTC): 03 August 2015 15:58:37
Eccentricity: 0.0001852
inclination: 98.1495°
perigee height: 631 km
apogee height: 634 km
right ascension of ascending node: 236.5430°
argument of perigee: 107.3560°
revolutions per day: 14.78985846
mean anomaly at epoch: 4.2389°
orbit number at epoch: 11674

The dashed part of the orbit path shows where the satellite is in the earth's shadow,  

DLR